Weather Roundup
Issued by NWS Chicago, IL

Home | Current Version | Previous Version | Graphics & Text | Print | Product List | Glossary On
Versions: 1 2 3 4 5 6 7 8 9 10 11 12 13 14 15 16 17 18 19 20 21 22 23 24 25 26 27 28 29 30 31 32 33 34 35 36 37 38 39 40 41 42 43 44 45 46 47 48 49 50
000
NZUS59 KLOT 051608
HRRLOT

CHICAGO AREA WEATHER ROUNDUP
NATIONAL WEATHER SERVICE CHICAGO/ROMEOVILLE IL
1100 AM CDT TUE MAY 05 2015

NOTE: "FAIR" INDICATES FEW OR NO CLOUDS BELOW 12,000 FEET WITH NO
SIGNIFICANT WEATHER AND/OR OBSTRUCTIONS TO VISIBILITY.

* THESE STATIONS ARE NOT UNDER NWS QUALITY CONTROL. THEY ALSO MAY NOT
  REPORT WEATHER SUCH AS PRECIPITATION OR FOG.

ILZ005-006-012>014-019>023-051700-
NORTHEAST ILLINOIS

CITY           SKY/WX    TMP DP  RH WIND       PRES   REMARKS
OHARE          CLOUDY    50  50 100 NE7       30.24R FOG
MIDWAY         CLOUDY    54  52  93 N7        30.23R FOG
AURORA         CLOUDY    58  54  86 E12       30.22S FOG
LANSING*       RAIN      52  50  93 SE3       30.22R
JOLIET*        CLOUDY    58  57  96 NE6       30.22S FOG
WAUKEGAN       LGT RAIN  47  46  97 NE9       30.25S
DUPAGE AIRPORT FOG       54  52  93 E10       30.23R VSB 1
WHEELING       CLOUDY    49  47  93 NE5       30.27R FOG
KANKAKEE*      CLOUDY    69  63  80 CALM      30.21R
MORRIS*        CLOUDY    60  58  92 E6        30.19R FOG
LEWIS AIRPORT* CLOUDY    56  55  96 NE7       30.22S FOG
NORTHERLY IS     N/A     48  47  96 N3          N/A
$$

WIZ051-052-058>065-066-070>072-051700-
SOUTHEAST WISCONSIN

CITY           SKY/WX    TMP DP  RH WIND       PRES   REMARKS
MILWAUKEE      LGT RAIN  48  44  86 E10       30.31R
KENOSHA*       LGT RAIN  47  45  93 NE13      30.28R
RACINE*        LGT RAIN  47  43  86 E15       30.30R FOG
BURLINGTON     RAIN      47  46  96 E8        30.28R
WAUKESHA       LGT RAIN  48  46  93 E12       30.30R
WEST BEND      LGT RAIN  50  45  81 E10       30.31R
$$

INZ001>003-010>013-019-020-051700-
NORTHWEST INDIANA

CITY           SKY/WX    TMP DP  RH WIND       PRES   REMARKS
GARY*          RAIN      54 N/A N/A CALM      30.23R VSB 1
MICHIGAN CITY* NOT AVBL
RENSSELAER*    NOT AVBL
VALPARAISO     PTSUNNY   69  63  81 SE6       30.21F
$$

LMZ740>746-051700-
SOUTHERN LAKE MICHIGAN

STATION/POSITION TIME  SKY/WX   TEMP WIND        PRES    VSBY
                                AIR  DIR/SP/G
                 (UTC)          (F)  (DEG/KT/KT) (MB)    (MI)
HARRISON CRIB    1500            45   90/  3/  5   N/A
BURNHAM HARBOR   1600            49  350/  3/  6   N/A
CALUMET HARBOR   1500            48   20/  3/  5   N/A
BURNS HARBOR     1500            51   60/  7/  9 1023.4S
MICHIGAN CITY    1500            51   20/  7/  7   N/A
$$

ABBREVIATIONS USED IN REMARKS
   TC - TEMPERATURE IN CELSIUS
  WCI - WIND CHILL INDEX
   HX - HEAT INDEX
  VSB - VISIBILITY
$$


USA.gov is the U.S. government's official web portal to all federal, state and local government web resources and services.